Regional Weather Roundup
Issued by NWS

Home | Current Version | Previous Version | Graphics & Text | Print | Product List | Glossary Off
Versions: 1 2 3 4 5 6 7 8 9 10 11 12 13 14 15 16 17 18 19 20 21 22 23 24 25 26 27 28 29 30 31 32 33 34 35 36 37 38 39 40 41 42 43 44 45 46 47 48 49 50

000
ASUS43 KDMX 241501
RWRIA

WEATHER ROUNDUP FOR IOWA
NATIONAL WEATHER SERVICE DES MOINES IA
1000 AM CDT MON APR 24 2017

NOTE: "FAIR" INDICATES FEW OR NO CLOUDS BELOW 12,000 FEET WITH NO
SIGNIFICANT WEATHER AND/OR OBSTRUCTIONS TO VISIBILITY.

* - THESE STATIONS ARE NOT NWS STATIONS...THUS NOT UNDER NWS
QUALITY CONTROL.  THEY ALSO DO NOT REPORT WEATHER SUCH
AS PRECIPITATION OR FOG.

IAZ001>003-012>014-020>022-031>034-043>046-241600-
   NORTHWEST IOWA

CITY           SKY/WX    TMP DP  RH WIND       PRES   REMARKS
CARROLL *      MOSUNNY   63  36  36 S28G37    29.75F
CHEROKEE *     PTSUNNY   59  33  37 S24G38    29.72F
DENISON *      PTSUNNY   61  34  36 S28G39    29.74F
LE MARS *      CLOUDY    61  36  39 S32G43    29.66F
ORANGE CITY *  CLOUDY    59  37  44 S25G36    29.66F
SHELDON *      PTSUNNY   59  36  41 S29G35    29.67F
SIOUX CITY     CLOUDY    60  37  42 S22G33    29.68F
SPENCER        CLOUDY    60  34  37 S30G40    29.72F
STORM LAKE *   MOSUNNY   61  34  36 S35G44    29.73F
$$

IAZ055>058-069>071-079>083-090>094-241600-
   SOUTHWEST IOWA

CITY           SKY/WX    TMP DP  RH WIND       PRES   REMARKS
ATLANTIC *     CLOUDY    63  36  36 S23G39    29.76F
AUDUBON *      PTSUNNY   61  34  36 S22G29    29.78F
CLARINDA *     SUNNY     63  37  39 S24G35    29.81F
COUNCIL BLFS * MOSUNNY   61  36  39 S30G40    29.71F
CRESTON *      SUNNY     63  36  36 S28G36    29.82F
HARLAN  *      CLOUDY    61  34  36 S23G41    29.76F
LAMONI         SUNNY     62  37  39 S12G24    29.85F
RED OAK *      CLOUDY    63  36  36 S30G38    29.76F
SHENANDOAH *   CLOUDY    63  36  36 S26G44    29.76F
$$

IAZ047>049-059>061-072>074-084-241600-
   CENTRAL IOWA

CITY           SKY/WX    TMP DP  RH WIND       PRES   REMARKS
AMES           SUNNY     63  35  35 S22G36    29.82F
ANKENY *       SUNNY     64  34  32 S22G32    29.84F
BOONE *        SUNNY     64  32  29 S21G35    29.80F
CHARITON *     SUNNY     63  34  34 S22G28    29.86F
DES MOINES     CLOUDY    65  34  31 S20G28    29.83F
GRINNELL*      SUNNY     63  34  33 SE20      29.88F
KNOXVILLE *    SUNNY     64  34  32 S15       29.85F
MARSHALLTOWN   SUNNY     65  33  30 S24G30    29.84F
NEWTON *       SUNNY     64  32  29 S20G29    29.85F
PELLA *        SUNNY     65  31  27 S20       29.88F
PERRY *          N/A     64  29  27 S26G37    29.80F
$$

IAZ004>006-015-016-023>025-035-036-241600-
   NORTH CENTRAL IOWA

CITY           SKY/WX    TMP DP  RH WIND       PRES   REMARKS
ALGONA *       SUNNY     63  34  34 S35G45    29.76F
CLARION *      CLOUDY    63  34  34 S25G36    29.80F
ESTHERVILLE    MOSUNNY   59  36  42 S30G39    29.74F
FORT DODGE *   MOSUNNY   63  34  34 S23G31    29.79F
MASON CITY     CLOUDY    60  38  43 S20       29.82F
FOREST CITY *    N/A     61  34  36 S21G30    29.79F
WEBSTER CITY * MOSUNNY   64  34  32 S24G32    29.78F
IOWA FALLS *     N/A     64  34  33 S22G29    29.84F
$$

IAZ007>011-017>019-026>030-037>042-050>054-066-241600-
   NORTHEAST IOWA

CITY           SKY/WX    TMP DP  RH WIND       PRES   REMARKS
CEDAR RAPIDS   MOSUNNY   62  35  36 S14       29.91F
CHARLES CITY * CLOUDY    61  32  33 S17       29.86F
CLINTON *      SUNNY     62  38  40 SE12      29.98F
DECORAH *      PTSUNNY   59  34  38 S14G20    29.88F
DUBUQUE        MOSUNNY   60  31  33 S20G25    29.95F
MONTICELLO *   MOSUNNY   64  32  29 S16G22    29.93F
OELWEIN *      CLOUDY    63  34  34 S17G24    29.89F
WATERLOO       CLOUDY    63  33  32 S20       29.86F
$$

IAZ064-065-067-068-078-241600-
   EAST CENTRAL IOWA

CITY           SKY/WX    TMP DP  RH WIND       PRES   REMARKS
DAVENPORT        N/A     64  31  28 MISG      29.97F
IOWA CITY      CLOUDY    64  37  36 S13       29.94F
MUSCATINE *    SUNNY     64  36  34 S15G21    29.96F
QUAD CITIES    SUNNY     65  36  34 S15       29.96F
$$

IAZ062-063-075>077-085>089-095>099-241600-
   SOUTHEAST IOWA

CITY           SKY/WX    TMP DP  RH WIND       PRES   REMARKS
BURLINGTON     SUNNY     63  37  38 S12       29.95F
FAIRFIELD *    CLOUDY    64  34  32 S13G20    29.93F
FORT MADISON * SUNNY     66  36  32 S12       29.96F
KEOKUK *       SUNNY     64  36  34 SE9       29.95F
OSKALOOSA *      N/A     64  32  29 S21       29.90F
OTTUMWA        CLOUDY    63  35  35 SE17      29.90F
WASHINGTON *   CLOUDY    64  34  32 S17       29.94F
$$

ABBREVIATIONS USED IN REMARKS
   TC - TEMPERATURES IN CELSIUS
  WCI - WIND CHILL INDEX
   HX - HEAT INDEX
  VSB - VISIBILITY
$$





USA.gov is the U.S. government's official web portal to all federal, state and local government web resources and services.